TimeCST,TemperatureF,Dew PointF,Humidity,Sea Level PressureIn,VisibilityMPH,Wind Direction,Wind SpeedMPH,Gust SpeedMPH,PrecipitationIn,Events,Conditions,WindDirDegrees,DateUTC
12:15 AM,46.0,43.7,92,29.83,7.0,NW,15.0,-,N/A,,Overcast,320,2012-12-10 06:15:00
12:35 AM,46.0,43.3,90,29.84,10.0,NNW,11.5,-,N/A,,Overcast,330,2012-12-10 06:35:00
12:55 AM,45.5,43.0,91,29.83,7.0,NW,12.7,-,N/A,,Overcast,320,2012-12-10 06:55:00
1:15 AM,45.5,42.8,90,29.84,7.0,NW,11.5,-,N/A,,Overcast,320,2012-12-10 07:15:00
1:35 AM,45.1,42.3,90,29.84,10.0,NW,10.4,-,N/A,,Overcast,320,2012-12-10 07:35:00
1:55 AM,45.1,42.1,89,29.84,10.0,NW,10.4,-,N/A,,Overcast,310,2012-12-10 07:55:00
2:15 AM,44.6,41.7,90,29.84,7.0,NW,9.2,-,N/A,,Mostly Cloudy,310,2012-12-10 08:15:00
2:55 AM,44.6,41.0,87,29.83,10.0,NW,5.8,-,N/A,,Overcast,320,2012-12-10 08:55:00
3:15 AM,44.6,41.0,87,29.82,10.0,NW,5.8,-,N/A,,Overcast,320,2012-12-10 09:15:00
3:35 AM,44.6,40.6,86,29.82,7.0,NW,5.8,-,N/A,,Overcast,310,2012-12-10 09:35:00
3:55 AM,44.6,40.6,86,29.80,7.0,NW,4.6,-,N/A,,Overcast,310,2012-12-10 09:55:00
4:15 AM,44.6,41.2,88,29.80,10.0,WNW,4.6,-,N/A,,Overcast,290,2012-12-10 10:15:00
4:35 AM,44.1,39.7,85,29.80,10.0,WNW,17.3,20.7,N/A,,Overcast,300,2012-12-10 10:35:00
4:55 AM,42.6,38.5,85,29.81,7.0,WNW,15.0,-,N/A,,Overcast,300,2012-12-10 10:55:00
5:15 AM,42.1,38.3,86,29.81,10.0,WNW,13.8,18.4,N/A,,Overcast,300,2012-12-10 11:15:00
5:35 AM,41.5,37.2,85,29.83,10.0,WNW,11.5,-,N/A,,Overcast,300,2012-12-10 11:35:00
5:55 AM,40.8,36.5,85,29.84,10.0,WNW,13.8,19.6,N/A,,Overcast,300,2012-12-10 11:55:00
6:15 AM,40.1,35.2,83,29.84,10.0,WNW,13.8,-,N/A,,Overcast,300,2012-12-10 12:15:00
6:35 AM,39.4,34.7,83,29.83,10.0,WNW,13.8,-,N/A,,Mostly Cloudy,300,2012-12-10 12:35:00
6:55 AM,39.2,35.6,87,29.84,10.0,WNW,12.7,-,N/A,,Mostly Cloudy,290,2012-12-10 12:55:00
7:15 AM,37.8,33.8,86,29.85,10.0,NW,18.4,-,N/A,,Overcast,310,2012-12-10 13:15:00
7:35 AM,36.3,32.2,85,29.86,10.0,WNW,16.1,-,N/A,,Overcast,300,2012-12-10 13:35:00
7:55 AM,35.6,31.8,86,29.87,7.0,NW,18.4,-,N/A,,Overcast,310,2012-12-10 13:55:00
8:15 AM,35.1,31.3,86,29.88,10.0,NW,17.3,21.9,N/A,,Overcast,310,2012-12-10 14:15:00
8:35 AM,35.1,31.6,87,29.89,7.0,West,16.1,21.9,N/A,,Overcast,280,2012-12-10 14:35:00
8:55 AM,34.7,31.3,87,29.89,7.0,WNW,20.7,-,N/A,,Overcast,300,2012-12-10 14:55:00
9:15 AM,34.2,30.9,88,29.90,7.0,WNW,12.7,20.7,N/A,,Overcast,300,2012-12-10 15:15:00
9:35 AM,34.0,30.6,87,29.90,7.0,NW,16.1,21.9,N/A,,Overcast,310,2012-12-10 15:35:00
9:55 AM,33.4,29.5,85,29.91,10.0,WNW,16.1,-,N/A,,Overcast,300,2012-12-10 15:55:00
10:15 AM,33.1,29.1,85,29.91,7.0,WNW,13.8,20.7,N/A,,Overcast,300,2012-12-10 16:15:00
10:35 AM,32.9,29.3,87,29.91,7.0,WNW,17.3,-,N/A,,Overcast,290,2012-12-10 16:35:00
10:55 AM,32.9,28.8,85,29.91,10.0,WNW,16.1,-,N/A,,Overcast,300,2012-12-10 16:55:00
11:15 AM,33.3,28.9,84,29.90,7.0,WNW,17.3,-,N/A,,Overcast,290,2012-12-10 17:15:00
11:35 AM,33.1,29.3,86,29.90,7.0,WNW,16.1,21.9,N/A,,Overcast,300,2012-12-10 17:35:00
11:55 AM,33.4,28.6,82,29.90,10.0,NW,17.3,21.9,N/A,,Overcast,310,2012-12-10 17:55:00
12:15 PM,34.0,28.8,81,29.89,10.0,NW,17.3,20.7,N/A,,Overcast,320,2012-12-10 18:15:00
12:35 PM,33.3,28.9,84,29.88,7.0,NW,15.0,-,N/A,,Overcast,310,2012-12-10 18:35:00
12:55 PM,33.6,28.6,82,29.88,7.0,WNW,12.7,17.3,N/A,,Overcast,300,2012-12-10 18:55:00
1:15 PM,34.2,29.3,82,29.89,10.0,NW,11.5,16.1,N/A,,Overcast,310,2012-12-10 19:15:00
1:35 PM,34.3,29.7,83,29.89,10.0,West,13.8,-,N/A,,Overcast,280,2012-12-10 19:35:00
1:55 PM,33.8,29.1,83,29.88,7.0,WNW,11.5,-,N/A,,Overcast,300,2012-12-10 19:55:00
2:15 PM,33.8,29.3,84,29.88,10.0,WNW,12.7,-,N/A,,Overcast,300,2012-12-10 20:15:00
2:35 PM,33.6,29.1,84,29.89,10.0,WNW,12.7,-,N/A,,Overcast,300,2012-12-10 20:35:00
3:15 PM,33.8,29.1,83,29.91,10.0,WNW,13.8,19.6,N/A,,Overcast,300,2012-12-10 21:15:00
3:35 PM,33.8,29.3,84,29.92,10.0,West,16.1,-,N/A,,Overcast,280,2012-12-10 21:35:00
3:55 PM,33.4,28.8,83,29.92,10.0,WNW,19.6,-,N/A,,Overcast,290,2012-12-10 21:55:00
4:15 PM,33.3,28.8,84,29.92,10.0,WNW,15.0,-,N/A,,Overcast,300,2012-12-10 22:15:00
4:35 PM,33.4,28.9,84,29.93,10.0,NW,12.7,18.4,N/A,,Overcast,310,2012-12-10 22:35:00
4:55 PM,33.4,28.9,84,29.95,10.0,WNW,12.7,18.4,N/A,,Overcast,290,2012-12-10 22:55:00
5:15 PM,33.4,28.9,84,29.96,10.0,WNW,12.7,-,N/A,,Overcast,290,2012-12-10 23:15:00
5:35 PM,33.3,29.3,85,29.97,10.0,WNW,12.7,-,N/A,,Overcast,300,2012-12-10 23:35:00
5:55 PM,33.3,29.1,85,29.98,10.0,WNW,12.7,-,N/A,,Overcast,290,2012-12-10 23:55:00
6:15 PM,33.1,28.6,84,29.99,10.0,WNW,12.7,-,N/A,,Overcast,300,2012-12-11 00:15:00
6:35 PM,33.1,28.8,84,30.00,10.0,WNW,13.8,19.6,N/A,,Overcast,290,2012-12-11 00:35:00
6:55 PM,33.1,28.9,85,30.00,10.0,West,13.8,18.4,N/A,,Overcast,280,2012-12-11 00:55:00
7:15 PM,32.9,28.4,84,30.01,10.0,WNW,13.8,-,N/A,,Overcast,290,2012-12-11 01:15:00
7:35 PM,32.9,28.2,83,30.01,10.0,WNW,10.4,-,N/A,,Overcast,300,2012-12-11 01:35:00
7:55 PM,32.9,27.9,82,30.02,10.0,WNW,10.4,16.1,N/A,,Overcast,300,2012-12-11 01:55:00
8:15 PM,32.9,27.9,82,30.02,10.0,WNW,10.4,-,N/A,,Overcast,300,2012-12-11 02:15:00
8:35 PM,32.9,26.4,77,30.02,10.0,NW,13.8,-,N/A,,Overcast,310,2012-12-11 02:35:00
8:55 PM,32.7,25.5,75,30.03,10.0,NW,11.5,-,N/A,,Overcast,320,2012-12-11 02:55:00
9:15 PM,32.9,25.0,73,30.03,10.0,NNW,12.7,-,N/A,,Overcast,330,2012-12-11 03:15:00
9:35 PM,32.9,25.0,73,30.04,10.0,NW,12.7,16.1,N/A,,Overcast,320,2012-12-11 03:35:00
9:55 PM,32.9,25.0,73,30.04,10.0,NW,9.2,-,N/A,,Overcast,310,2012-12-11 03:55:00
10:15 PM,32.7,24.8,73,30.04,10.0,NNW,11.5,-,N/A,,Overcast,340,2012-12-11 04:15:00
10:35 PM,32.7,24.8,73,30.05,10.0,NNW,8.1,-,N/A,,Overcast,340,2012-12-11 04:35:00
10:55 PM,32.7,24.8,73,30.05,10.0,NNW,10.4,-,N/A,,Overcast,330,2012-12-11 04:55:00
11:15 PM,32.7,24.8,73,30.06,10.0,NW,8.1,-,N/A,,Overcast,320,2012-12-11 05:15:00
11:35 PM,32.9,24.6,72,30.07,10.0,NW,10.4,-,N/A,,Overcast,320,2012-12-11 05:35:00
11:55 PM,32.7,25.2,74,30.07,10.0,NW,5.8,-,N/A,,Overcast,310,2012-12-11 05:55:00